Regional Weather Roundup
Issued by NWS

Home | Current Version | Previous Version | Graphics & Text | Print | Product List | Glossary On
Versions: 1 2 3 4 5 6 7 8 9 10 11 12 13 14 15 16 17 18 19 20 21 22 23 24 25 26 27 28 29 30 31 32 33 34 35 36 37 38 39 40 41 42 43 44 45 46 47 48 49 50
000
ASUS43 KBIS 011302
RWRND

NORTH DAKOTA REGIONAL WEATHER ROUNDUP
NATIONAL WEATHER SERVICE BISMARCK ND
800 AM CDT WED JUL 01 2015

NOTE: "FAIR" INDICATES FEW OR NO CLOUDS BELOW 12,000 FEET WITH NO
SIGNIFICANT WEATHER AND/OR OBSTRUCTIONS TO VISIBILITY.


NDZ001>003-009>011-017-011400-
NORTHWEST NORTH DAKOTA

CITY           SKY/WX    TMP DP  RH WIND       PRES   REMARKS
WILLISTON      CLOUDY    62  59  90 NE8       29.98R FOG
MINOT          FOG       63  62  97 CALM      29.95R VSB 1/4
MINOT AFB      FOG       63  63 100 NW5       29.94R VSB 1/4
$$

NDZ018>021-031>035-040>046-011400-
SOUTHWEST NORTH DAKOTA

CITY           SKY/WX    TMP DP  RH WIND       PRES   REMARKS
BISMARCK       CLOUDY    64  63  96 NE6       29.95R FOG
DICKINSON      CLOUDY    63  60  90 NE9       29.95R FOG
GARRISON         N/A     61  60  97 N3        29.95R
HETTINGER ARPT FOG       61  60  97 NE7       29.96R VSB 1/4
$$

NDZ004>008-012>016-024-026-027-054-011400-
NORTHEAST NORTH DAKOTA

CITY           SKY/WX    TMP DP  RH WIND       PRES   REMARKS
GRAND FORKS    SUNNY     61  56  83 CALM      29.94R
GRND FRKS AFB  SUNNY     60  59  97 N2        29.95R
DEVILS LAKE    SUNNY     63  57  82 SE3       29.95R
$$

NDZ022-023-025-028>030-036>039-047>053-011400-
SOUTHEAST NORTH DAKOTA

CITY           SKY/WX    TMP DP  RH WIND       PRES   REMARKS
FARGO          MOSUNNY   67  62  84 S3        29.95R
JAMESTOWN      CLOUDY    64  60  87 E5        29.94S
$$




USA.gov is the U.S. government's official web portal to all federal, state and local government web resources and services.